Regional Weather Roundup
Issued by NWS

Home | Current Version | Previous Version | Graphics & Text | Print | Product List | Glossary On
Versions: 1 2 3 4 5 6 7 8 9 10 11 12 13 14 15 16 17 18 19 20 21 22 23 24 25 26 27 28 29 30 31 32 33 34 35 36 37 38 39 40 41 42 43 44 45 46 47 48 49 50
000
ASUS43 KMPX 010310
RWRMN
WEATHER ROUNDUP FOR MINNESOTA
NATIONAL WEATHER SERVICE TWIN CITIES/CHANHASSEN MN
1000 PM CDT MON AUG 31 2015


NOTE: "FAIR" INDICATES FEW OR NO CLOUDS BELOW 12,000 FEET WITH NO
SIGNIFICANT WEATHER AND/OR OBSTRUCTIONS TO VISIBILITY. N/A MEANS
CURRENT SKY AND/OR WEATHER CONDITIONS ARE NOT AVAILABLE.

MNZ060>063-068>070-010400-
   Twin Cities Metro

CITY           SKY/WX    TMP DP  RH WIND       PRES   REMARKS
TWIN CITIES    MOCLDY    79  70  74 S7        29.90S
ST PAUL        PTCLDY    73  71  93 SE6       29.91R
CRYSTAL        PTCLDY    77  69  76 S3        29.89R
BLAINE         PTCLDY    77  70  78 S6        29.90S
LAKEVILLE      PTCLDY    68  68 100 CALM      29.92S FOG
EDEN PRAIRIE   PTCLDY    76  70  82 S5        29.90R
SOUTH ST PAUL  PTCLDY    77  71  81 S5        29.91S
LAKE ELMO      FAIR      73  72  94 S6        29.92S
$$
MNZ001>005-007-008-013>017-022>024-027-028-010400-
   Northwest Minnesota

CITY           SKY/WX    TMP DP  RH WIND       PRES   REMARKS
BEMIDJI        CLOUDY    68  66  94 CALM      29.86S
HALLOCK        PTCLDY    61  48  63 SW5       29.81S
ROSEAU         MOCLDY    66  59  77 SW7       29.82R
WARROAD        CLOUDY    66  63  88 SW6       29.82R
THIEF RVR FALL CLOUDY   N/A N/A N/A W7        29.84R
CROOKSTON      CLOUDY    68  55  64 W6        29.85R
FOSSTON        CLOUDY    63  61  94 SW3       29.87R
DETROIT LAKES  CLOUDY    70  64  83 CALM      29.88S
MOORHEAD       CLOUDY    66  64  94 CALM      29.86R
PARK RAPIDS    CLOUDY    70  66  87 CALM      29.87R
MAHNOMEN       FAIR      66  63  90 SW3       29.87R
$$
MNZ006-009>011-018-025>026-010400-
   North Central Minnesota

CITY           SKY/WX    TMP DP  RH WIND       PRES   REMARKS
BAUDETTE       CLOUDY    65  63  93 SW5       29.82R
FLAG ISLAND    MOCLDY    68  64  88 S5        29.78S
INTL FALLS     CLOUDY    67  65  93 W5        29.83R
WASKISH        CLOUDY    64  63  94 CALM      29.84S FOG
BIG FORK       MOCLDY    66  64  94 CALM      29.85F
LONGVILLE      CLOUDY    70  68  94 CALM      29.85F FOG
GRAND RAPIDS     N/A     73  66  78 S6        29.87S
CRANE LAKE     MOCLDY    64  64 100 S1        29.85S
ORR            CLOUDY    68  63  83 CALM      29.83R
COOK           MOCLDY    70  66  88 CALM      29.86R
WALKER         FAIR      68  67  94 CALM      29.85F
$$
MNZ012-019>021-037-010400-
   Northeast Minnesota

CITY           SKY/WX    TMP DP  RH WIND       PRES   REMARKS
DULUTH         PTCLDY    73  68  84 SW9       29.89S
ELY            CLOUDY    73  66  78 W3        29.86S
HIBBING        MOCLDY    74  67  78 VRB5      29.86S
EVELETH        PTCLDY    72  68  88 S5        29.88S
DULUTH HARBOR  PTCLDY    73  72  94 S8        29.87S
TWO HARBORS    PTCLDY    73  68  83 CALM      29.86S
SILVER BAY     PTCLDY    72  68  88 SW3       29.86S
GRAND MARAIS     N/A     58  57  97 W3        29.85S
G MARAIS ARPRT PTCLDY    68  63  83 SW5       29.91R
$$
MNZ029>031-032-039>041-046>048-054>057-064-010400-
   West Central Minnesota

CITY           SKY/WX    TMP DP  RH WIND       PRES   REMARKS
FERGUS FALLS   CLOUDY    70  68  94 CALM      29.86R
WHEATON        MOCLDY    70  64  83 CALM      29.89R
MORRIS         MOCLDY    72  68  88 CALM      29.87R FOG
ALEXANDRIA     MOCLDY    72  66  81 CALM      29.89R
ELBOW LAKE     FAIR      70  68  93 CALM      29.87R
WADENA         CLOUDY    70  64  83 CALM      29.86S
GLENWOOD       PTCLDY    72  68  88 CALM      29.89R
APPLETON       MOCLDY    72  66  83 CALM      29.86R
BENSON         PTCLDY    72  66  83 CALM      29.86R
ORTONVILLE     MOCLDY    73  66  78 NW2       29.88R
MADISON        MOCLDY    70  66  88 CALM      29.87R
WILLMAR        FAIR      73  68  83 CALM      29.89R
$$
MNZ033>034-036-042>043-049>051-058-059-010400-
   Central Minnesota

CITY           SKY/WX    TMP DP  RH WIND       PRES   REMARKS
ST CLOUD       CLEAR     71  68  90 SE7       29.88S
SAUK CENTRE    FAIR      70  67  92 S3        29.88S
PAYNESVILLE    CLEAR     73  67  80 SE7       29.89S
AITKIN         MOCLDY    73  66  78 S6        29.86S
PINE RIVER     MOCLDY    70  70 100 CALM      29.89F
BRAINERD       MOCLDY    73  67  81 S7        29.86S
STAPLES        PTCLDY    70  64  83 CALM      29.86S
LONG PRAIRIE   FAIR      70  68  94 S3        29.88S
LITTLE FALLS   PTCLDY    72  64  78 S5        29.87S
LITCHFIELD     CLEAR     75  72  88 CALM      29.90R
BUFFALO        CLEAR     73  67  81 SE5       29.90S
MAPLE LAKE     CLEAR     72  69  91 CALM      29.90S
$$
MNZ037-044-045-052-053-010400-
   East Central Minnesota

CITY           SKY/WX    TMP DP  RH WIND       PRES   REMARKS
PRINCETON      CLEAR     73  70  88 SE6       29.89S
MORA           PTCLDY    70  64  83 S3        29.90F
CAMBRIDGE      CLEAR     75  64  69 CALM      29.88S
RUSH CITY      CLEAR     71  67  89 SE3       29.90S
MOOSE LAKE     MOCLDY    70  68  94 CALM      29.87S
HINCKLEY       FAIR      73  70  88 S6        29.89F
CLOQUET        CLOUDY    73  66  78 S5        29.89S
MCGREGOR       PTCLDY    73  68  83 S5        29.88S
$$
MNZ071>073-080-081-089-090-097-098-010400-
   Southwest Minnesota

CITY           SKY/WX    TMP DP  RH WIND       PRES   REMARKS
MONTEVIDEO     PTCLDY    73  70  88 S9        29.87S
GRANITE FALLS  CLEAR     72  69  91 CALM      29.89R
CANBY          PTCLDY    76  69  80 SW6       29.88R
MARSHALL       CLEAR     73  66  78 S9        29.90S
REDWOOD FALLS  CLEAR     73  68  84 S8        29.89R
OLIVIA         CLEAR     70  64  83 S5        29.89R
PIPESTONE      CLEAR     72  68  88 S5        29.92S
WINDOM         CLEAR     72  66  83 S7        29.93R
WORTHINGTON    CLEAR     70  64  83 S6        29.93R
JACKSON        CLEAR     70  66  88 S8        29.94S
TRACY          CLEAR     73  69  86 S10       29.90S
SLAYTON        CLEAR     69  69  98 CALM      29.93S
$$
MNZ065>067-074>077-082>085-091>093-010400-
   South Central Minnesota

CITY           SKY/WX    TMP DP  RH WIND       PRES   REMARKS
MANKATO        CLEAR     73  68  83 S7        29.92S
NEW ULM        CLEAR     70  66  88 S6        29.90S
ST JAMES       CLEAR     72  68  88 S5        29.92S
FAIRMONT       CLEAR     68  61  77 S6        29.93R
GLENCOE        CLEAR     73  70  91 CALM      29.90S
FARIBAULT      CLEAR     73  70  88 S5        29.93S
OWATONNA       CLEAR     73  70  88 S7        29.94S
WASECA         CLEAR     72  68  88 S6        29.95R
ALBERT LEA     CLEAR     73  70  88 CALM      29.95S
$$
MNZ078>079-086>088-094>096-010400-
   Southeast Minnesota

CITY           SKY/WX    TMP DP  RH WIND       PRES   REMARKS
ROCHESTER      PTCLDY    73  71  93 S6        29.97R FOG
RED WING       CLEAR     77  72  83 SE3       29.92R
STANTON        CLEAR     74  70  86 CALM      29.91S
DODGE CENTER   CLEAR     72  70  94 S6        29.96S FOG
WINONA         PTCLDY    73  72  94 CALM      29.95S
AUSTIN         PTCLDY    73  70  88 CALM      29.96R
PRESTON        PTCLDY    73  70  89 S6        29.98S
$$
ABBREVIATIONS USED IN REMARKS
   TC - TEMPERATURES IN CELSIUS
  WCI - WIND CHILL INDEX
   HX - HEAT INDEX
  VSB - VISIBILITY
$$


USA.gov is the U.S. government's official web portal to all federal, state and local government web resources and services.